Location: Napier
(39.4830°S, 176.9170°E)
Time: 22:56:08
(UTC+13:00)

Cosmos 1862 - Pass Details

Date: 24 January 2019
Orbit: 540 x 556 km, 82.5° (Epoch: 22 February)

Event Time Altitude Azimuth Distance (km) Brightness Sun altitude
Rises 22:23:04 0° 193° (SSW) 2,754 7.9 -17.6°
Reaches altitude 10° 22:25:17 10° 197° (SSW) 1,849 7.0 -17.9°
Maximum altitude 22:29:15 53° 273° (W) 687 4.0 -18.5°
Enters shadow 22:31:29 23° 341° (NNW) 1,184 4.7 -18.8°
